QPF
0.00 0.00 0.00 0.00 0.00 0.00 0.00 0.00 0.00 0.00 0.00 0.00 0.00 0.00 0.00 0.00 0.00 0.00 0.00 0.00 0.00 0.00 0.00 0.00 0.00 0.01 0.00 0.00 0.00 0.00 0.00 0.00 0.00 0.00 0.00 0.00 0.00 0.00 0.00 0.00 0.00 0.00 0.00 0.00 0.00 0.00 0.00 0.00 0.00
0.00 0.00 0.00 0.00 0.00 0.00 0.00 0.00 0.00 0.01 0.00 0.00 0.00 0.00 0.00 0.00 0.00 0.00 0.00 0.00 0.00 0.00 0.00 0.00 0.00 0.00 0.00 0.00 0.00 0.00 0.00 0.00 0.00 0.00 0.00 0.00 0.00 0.00 0.00 0.00 0.00 0.00 0.00 0.00 0.00 0.00 0.00 0.00 0.00
0.00 0.00 0.00 0.00 0.00 0.00 0.00 0.00 0.00 0.00 0.01 0.00 0.00 0.00 0.00 0.00 0.00 0.00 0.00 0.00 0.00 0.00 0.00 0.00 0.00 0.00 0.00 0.00 0.00 0.00 0.00 0.00 0.00 0.00 0.00 0.00 0.01 0.00 0.01 0.02 0.00 0.00 0.00 0.00 0.00 0.00 0.00 0.00 0.00
0.00 0.00 0.01 0.01 0.00 0.00 0.00 0.00 0.00 0.00 0.00 0.00 0.00 0.00 0.00 0.00 0.00 0.00 0.00 0.00 0.00 0.00 0.00 0.00 0.00 0.00 0.00 0.00 0.00 0.00 0.00 0.00 0.00 0.00 0.00 0.00 0.00 0.00 0.00 0.00 0.00 0.00 0.01 0.00 0.00 0.00 0.00 0.00 0.00
0.00 0.00 0.00 0.00 0.00 0.00 0.00 0.00 0.00 0.00 0.00 0.00 0.00 0.00 0.00 0.00 0.00 0.00 0.00 0.00 0.00 0.00 0.00 0.00 0.00 0.00 0.00 0.00 0.00 0.00 0.00 0.00 0.00 0.00 0.00 0.00 0.00 0.00 0.00 0.00 0.00 0.00 0.01 0.00 0.00 0.00 0.01 0.00 0.00
0.00 0.00 0.00 0.00 0.00 0.00 0.00 0.00 0.00 0.00 0.00 0.00 0.00 0.00 0.00 0.00 0.00 0.00 0.00 0.00 0.00 0.00 0.00 0.00 0.00 0.00 0.00 0.00 0.00 0.00 0.00 0.00 0.00 0.00 0.00 0.00 0.00 0.00 0.00 0.00 0.00 0.00 0.00 0.00 0.00 0.00 0.01 0.02 0.00
0.00 0.00 0.00 0.00 0.00 0.00 0.00 0.00 0.00 0.00 0.00 0.00 0.00 0.00 0.00 0.00 0.00 0.00 0.00 0.00 0.00 0.00 0.00 0.00 0.00 0.00 0.00 0.00 0.00 0.00 0.00 0.00 0.00 0.00 0.00 0.00 0.00 0.00 0.00 0.00 0.00 0.00 0.00 0.00 0.00 0.00 0.02 0.04 0.00
0.00 0.00 0.00 0.00 0.00 0.00 0.00 0.00 0.00 0.00 0.00 0.00 0.00 0.00 0.00 0.00 0.00 0.00 0.00 0.00 0.00 0.00 0.00 0.00 0.00 0.00 0.00 0.00 0.00 0.00 0.00 0.00 0.00 0.00 0.00 0.00 0.00 0.00 0.00 0.01 0.00 0.00 0.00 0.00 0.02 0.02 0.00 0.08 0.02
0.00 0.00 0.00 0.00 0.00 0.00 0.00 0.00 0.00 0.00 0.00 0.00 0.00 0.00 0.00 0.00 0.00 0.00 0.00 0.00 0.00 0.00 0.00 0.00 0.00 0.00 0.00 0.00 0.00 0.00 0.00 0.00 0.00 0.00 0.00 0.00 0.00 0.00 0.00 0.01 0.00 0.00 0.00 0.00 0.00 0.00 0.01 0.02 0.01
0.00 0.00 0.00 0.00 0.00 0.00 0.00 0.00 0.00 0.00 0.00 0.00 0.00 0.00 0.00 0.00 0.00 0.00 0.00 0.00 0.00 0.00 0.00 0.00 0.00 0.00 0.00 0.00 0.00 0.00 0.00 0.00 0.00 0.00 0.00 0.00 0.00 0.00 0.00 0.00 0.00 0.00 0.00 0.00 0.00 0.03 0.03 0.13 0.15
0.00 0.00 0.00 0.00 0.00 0.00 0.00 0.00 0.00 0.00 0.00 0.00 0.00 0.00 0.00 0.00 0.00 0.00 0.00 0.00 0.00 0.00 0.00 0.00 0.00 0.00 0.00 0.00 0.00 0.00 0.00 0.00 0.00 0.00 0.00 0.00 0.00 0.00 0.00 0.00 0.00 0.00 0.00 0.00 0.00 0.07 0.11 0.10 0.13
0.00 0.00 0.00 0.00 0.00 0.00 0.00 0.00 0.00 0.00 0.00 0.00 0.00 0.00 0.00 0.00 0.00 0.00 0.00 0.00 0.00 0.00 0.00 0.00 0.00 0.00 0.00 0.00 0.00 0.00 0.00 0.00 0.00 0.00 0.00 0.00 0.00 0.00 0.00 0.00 0.00 0.00 0.00 0.00 0.00 0.01 0.12 0.12 0.13
0.00 0.00 0.00 0.00 0.00 0.00 0.00 0.00 0.00 0.00 0.00 0.00 0.00 0.00 0.00 0.00 0.00 0.00 0.00 0.00 0.00 0.00 0.00 0.00 0.00 0.00 0.00 0.00 0.00 0.00 0.00 0.00 0.00 0.00 0.00 0.00 0.00 0.00 0.00 0.00 0.00 0.00 0.00 0.00 0.00 0.00 0.00 0.03 0.06
0.00 0.00 0.00 0.00 0.00 0.00 0.00 0.00 0.00 0.00 0.00 0.00 0.00 0.00 0.00 0.00 0.00 0.00 0.00 0.00 0.00 0.00 0.00 0.00 0.00 0.00 0.00 0.00 0.00 0.00 0.00 0.00 0.00 0.00 0.00 0.00 0.00 0.00 0.00 0.00 0.00 0.00 0.00 0.00 0.00 0.00 0.01 0.00 0.00
0.00 0.00 0.00 0.00 0.00 0.00 0.00 0.00 0.00 0.00 0.00 0.00 0.00 0.00 0.00 0.00 0.00 0.00 0.00 0.00 0.00 0.00 0.00 0.00 0.00 0.00 0.00 0.00 0.00 0.00 0.00 0.00 0.00 0.00 0.00 0.00 0.00 0.00 0.00 0.00 0.00 0.00 0.00 0.00 0.00 0.00 0.01 0.01 0.00
0.00 0.00 0.00 0.00 0.00 0.00 0.00 0.00 0.00 0.00 0.00 0.00 0.00 0.00 0.00 0.00 0.00 0.00 0.00 0.00 0.00 0.00 0.00 0.00 0.00 0.00 0.00 0.00 0.00 0.00 0.00 0.00 0.00 0.00 0.00 0.00 0.00 0.00 0.00 0.00 0.00 0.00 0.00 0.00 0.00 0.01 0.03 0.02 0.01
0.00 0.00 0.00 0.00 0.00 0.00 0.00 0.00 0.00 0.00 0.00 0.00 0.00 0.00 0.00 0.00 0.00 0.00 0.00 0.00 0.00 0.00 0.00 0.00 0.00 0.00 0.00 0.00 0.00 0.00 0.00 0.00 0.00 0.00 0.00 0.00 0.00 0.00 0.00 0.00 0.00 0.00 0.00 0.00 0.00 0.04 0.03 0.02 0.04
0.00 0.00 0.00 0.00 0.00 0.00 0.00 0.00 0.00 0.00 0.00 0.00 0.00 0.00 0.00 0.00 0.00 0.00 0.00 0.00 0.00 0.00 0.00 0.00 0.00 0.00 0.00 0.00 0.00 0.00 0.00 0.00 0.00 0.00 0.00 0.00 0.00 0.00 0.00 0.00 0.00 0.00 0.00 0.00 0.00 0.00 0.02 0.02 0.04
0.00 0.00 0.00 0.00 0.00 0.00 0.00 0.00 0.00 0.00 0.00 0.00 0.00 0.00 0.00 0.00 0.00 0.00 0.00 0.00 0.00 0.00 0.00 0.00 0.00 0.00 0.00 0.00 0.00 0.00 0.00 0.00 0.00 0.00 0.00 0.00 0.00 0.00 0.00 0.00 0.00 0.00 0.00 0.00 0.00 0.00 0.01 0.00 0.01
0.00 0.00 0.00 0.00 0.00 0.00 0.00 0.00 0.00 0.00 0.00 0.00 0.00 0.00 0.00 0.00 0.00 0.00 0.00 0.00 0.00 0.00 0.00 0.00 0.00 0.00 0.00 0.00 0.00 0.00 0.00 0.00 0.00 0.00 0.00 0.00 0.00 0.00 0.00 0.00 0.00 0.00 0.00 0.00 0.00 0.00 0.00 0.00 0.01
0.00 0.00 0.00 0.00 0.00 0.00 0.00 0.00 0.00 0.00 0.00 0.00 0.00 0.00 0.00 0.00 0.00 0.00 0.00 0.00 0.00 0.00 0.00 0.00 0.00 0.00 0.00 0.00 0.00 0.00 0.00 0.00 0.00 0.00 0.00 0.00 0.00 0.00 0.00 0.00 0.00 0.00 0.00 0.00 0.00 0.00 0.00 0.00 0.00
0.00 0.00 0.00 0.00 0.00 0.00 0.00 0.00 0.00 0.00 0.00 0.00 0.00 0.00 0.00 0.00 0.00 0.00 0.00 0.00 0.00 0.00 0.00 0.00 0.00 0.00 0.00 0.00 0.00 0.00 0.00 0.00 0.00 0.00 0.00 0.00 0.00 0.00 0.00 0.00 0.00 0.00 0.00 0.00 0.00 0.01 0.00 0.00 0.00
0.00 0.00 0.00 0.00 0.00 0.00 0.00 0.00 0.00 0.00 0.00 0.00 0.00 0.00 0.00 0.00 0.00 0.00 0.00 0.00 0.00 0.00 0.00 0.00 0.00 0.00 0.00 0.00 0.00 0.00 0.00 0.00 0.00 0.00 0.00 0.00 0.00 0.00 0.00 0.00 0.01 0.00 0.00 0.00 0.00 0.01 0.02 0.03 0.01
0.00 0.00 0.00 0.00 0.00 0.00 0.00 0.00 0.00 0.00 0.00 0.00 0.00 0.00 0.00 0.00 0.00 0.00 0.00 0.00 0.00 0.00 0.00 0.00 0.00 0.00 0.00 0.00 0.00 0.00 0.00 0.00 0.00 0.00 0.01 0.03 0.01 0.00 0.00 0.00 0.04 0.10 0.06 0.05 0.04 0.03 0.02 0.05 0.03
0.00 0.00 0.00 0.00 0.00 0.00 0.00 0.00 0.00 0.00 0.00 0.00 0.00 0.00 0.00 0.00 0.00 0.00 0.00 0.00 0.00 0.00 0.00 0.00 0.00 0.01 0.03 0.02 0.01 0.01 0.00 0.00 0.00 0.01 0.00 0.01 0.00 0.00 0.00 0.02 0.04 0.06 0.07 0.15 0.10 0.04 0.05 0.05 0.03
0.00 0.00 0.00 0.00 0.00 0.00 0.00 0.00 0.00 0.00 0.00 0.00 0.00 0.00 0.00 0.00 0.00 0.00 0.00 0.00 0.00 0.00 0.00 0.00 0.01 0.04 0.02 0.02 0.02 0.01 0.00 0.00 0.00 0.00 0.00 0.00 0.00 0.00 0.02 0.02 0.05 0.09 0.09 0.12 0.19 0.14 0.08 0.09 0.05
0.00 0.00 0.00 0.00 0.00 0.00 0.00 0.00 0.00 0.00 0.00 0.00 0.00 0.00 0.00 0.00 0.00 0.00 0.00 0.00 0.00 0.00 0.00 0.00 0.00 0.00 0.00 0.00 0.00 0.00 0.00 0.00 0.00 0.00 0.00 0.01 0.05 0.13 0.09 0.05 0.06 0.10 0.06 0.04 0.06 0.05 0.04 0.05 0.06
0.00 0.00 0.00 0.00 0.00 0.00 0.00 0.00 0.00 0.00 0.00 0.00 0.00 0.00 0.00 0.00 0.00 0.00 0.00 0.00 0.00 0.00 0.00 0.00 0.00 0.00 0.00 0.00 0.00 0.00 0.00 0.00 0.00 0.00 0.00 0.00 0.00 0.01 0.04 0.05 0.04 0.05 0.03 0.04 0.04 0.05 0.05 0.06 0.05
0.00 0.00 0.00 0.00 0.00 0.00 0.00 0.00 0.00 0.00 0.00 0.00 0.00 0.00 0.00 0.00 0.00 0.00 0.00 0.00 0.00 0.00 0.00 0.00 0.00 0.00 0.00 0.00 0.00 0.00 0.00 0.00 0.00 0.00 0.00 0.00 0.00 0.00 0.00 0.00 0.00 0.00 0.07 0.09 0.11 0.09 0.08 0.05 0.03
0.00 0.00 0.00 0.00 0.00 0.00 0.00 0.00 0.00 0.00 0.00 0.00 0.00 0.00 0.00 0.00 0.00 0.00 0.00 0.00 0.00 0.00 0.00 0.00 0.00 0.00 0.00 0.00 0.00 0.00 0.00 0.00 0.00 0.00 0.00 0.00 0.00 0.00 0.00 0.00 0.00 0.00 0.03 0.10 0.10 0.08 0.04 0.04 0.01
MSLP
1008.82 1008.93 1008.86 1008.61 1008.80 1008.01 1007.40 1007.45 1007.42 1007.62 1008.09 1008.31 1008.89 1009.19 1009.76 1010.51 1010.96 1012.34 1012.60 1012.96 1013.06 1013.80 1014.38 1014.78 1015.12 1015.40 1015.79 1016.03 1016.32 1016.40 1016.70 1016.97 1017.07 1017.24 1017.47 1017.58 1017.68 1017.90 1018.08 1018.22 1018.35 1018.46 1018.54 1018.55 1018.55 1018.66 1018.72 1018.74 1018.86
1008.75 1009.04 1008.90 1008.40 1008.00 1007.10 1007.10 1007.06 1007.01 1007.44 1007.87 1008.22 1008.88 1009.32 1009.86 1010.76 1011.54 1012.34 1012.83 1013.07 1013.01 1013.46 1014.30 1014.62 1015.13 1015.50 1015.95 1016.13 1016.34 1016.65 1016.85 1017.11 1017.27 1017.43 1017.65 1017.74 1017.86 1017.98 1018.17 1018.32 1018.46 1018.43 1018.56 1018.65 1018.66 1018.70 1018.78 1018.86 1018.91
1009.06 1009.01 1008.64 1008.10 1007.50 1006.62 1006.42 1006.66 1006.95 1007.50 1007.89 1008.20 1008.83 1009.42 1010.16 1011.02 1011.68 1012.10 1012.64 1012.94 1013.18 1013.69 1014.32 1014.67 1015.08 1015.66 1016.08 1016.38 1016.58 1016.95 1017.17 1017.33 1017.45 1017.58 1017.72 1017.86 1018.01 1018.11 1018.16 1018.38 1018.58 1018.64 1018.62 1018.63 1018.66 1018.70 1018.82 1018.82 1018.87
1008.94 1008.93 1008.82 1007.96 1006.73 1006.45 1006.06 1006.33 1006.94 1007.52 1007.97 1008.34 1008.83 1009.69 1010.83 1011.41 1011.67 1012.06 1012.79 1013.09 1013.50 1014.04 1014.43 1015.03 1015.38 1015.82 1016.21 1016.61 1016.87 1017.15 1017.36 1017.53 1017.65 1017.76 1017.81 1017.91 1018.09 1018.21 1018.36 1018.45 1018.53 1018.66 1018.60 1018.57 1018.56 1018.58 1018.61 1018.70 1018.82
1008.81 1008.53 1007.80 1007.14 1006.44 1006.10 1006.14 1006.32 1006.86 1007.34 1007.82 1008.30 1008.86 1010.08 1011.22 1011.90 1011.98 1012.62 1012.96 1013.26 1013.57 1014.19 1014.62 1015.19 1015.80 1016.00 1016.30 1016.71 1017.00 1017.24 1017.46 1017.63 1017.76 1017.88 1017.97 1018.08 1018.18 1018.24 1018.33 1018.46 1018.62 1018.68 1018.68 1018.74 1018.72 1018.67 1018.64 1018.70 1018.77
1008.28 1008.32 1007.41 1006.60 1006.18 1006.04 1006.17 1006.47 1006.92 1007.30 1007.94 1008.59 1009.20 1010.11 1011.57 1012.40 1012.54 1012.90 1013.26 1013.56 1013.70 1014.30 1014.82 1015.33 1016.02 1016.20 1016.48 1016.85 1017.14 1017.36 1017.51 1017.64 1017.77 1017.93 1018.02 1018.11 1018.22 1018.26 1018.37 1018.40 1018.40 1018.57 1018.70 1018.76 1018.75 1018.76 1018.71 1018.80 1018.75
1008.02 1007.73 1007.10 1006.52 1005.92 1005.85 1006.08 1006.56 1006.74 1007.30 1007.91 1008.40 1009.08 1009.94 1011.83 1012.34 1012.63 1013.02 1013.52 1013.87 1014.07 1014.48 1014.95 1015.42 1015.85 1016.29 1016.65 1016.95 1017.22 1017.44 1017.57 1017.65 1017.76 1017.89 1018.02 1018.11 1018.18 1018.27 1018.36 1018.44 1018.46 1018.45 1018.55 1018.57 1018.69 1018.72 1018.72 1018.82 1018.77
1007.73 1007.33 1006.70 1006.32 1005.92 1005.78 1005.92 1006.30 1006.64 1007.00 1007.80 1008.48 1008.92 1009.40 1010.93 1012.00 1012.74 1013.26 1013.86 1014.27 1014.60 1014.86 1015.04 1015.31 1015.71 1016.12 1016.51 1016.79 1017.21 1017.42 1017.61 1017.70 1017.76 1017.88 1018.00 1018.12 1018.22 1018.25 1018.26 1018.31 1018.38 1018.44 1018.44 1018.48 1018.61 1018.64 1018.66 1018.78 1018.88
1007.66 1007.00 1006.64 1006.36 1006.00 1005.85 1005.98 1006.13 1006.72 1007.22 1007.67 1008.35 1008.99 1009.43 1010.02 1011.80 1012.76 1013.32 1013.87 1014.45 1014.82 1015.11 1015.24 1015.34 1015.61 1015.96 1016.30 1016.57 1016.80 1017.30 1017.50 1017.59 1017.70 1017.76 1017.74 1017.88 1017.75 1017.79 1017.95 1017.90 1018.23 1018.39 1018.33 1018.35 1018.51 1018.48 1018.45 1018.60 1018.74
1007.24 1006.98 1006.74 1006.40 1006.12 1005.77 1005.77 1006.13 1006.62 1007.22 1007.85 1008.62 1009.53 1010.28 1010.99 1011.88 1012.65 1013.06 1013.40 1013.70 1014.21 1014.56 1015.02 1015.38 1015.48 1015.75 1016.22 1016.48 1016.76 1016.93 1017.04 1017.07 1017.15 1017.29 1017.50 1017.51 1017.53 1017.78 1017.91 1017.91 1018.19 1018.20 1018.25 1018.30 1018.40 1018.34 1018.42 1018.44 1018.64
1007.35 1006.94 1006.82 1006.40 1006.05 1005.77 1005.48 1006.06 1006.83 1007.14 1007.52 1007.88 1009.00 1010.33 1011.20 1011.88 1012.47 1012.71 1012.91 1013.03 1013.49 1014.15 1014.71 1015.07 1015.31 1015.70 1015.99 1016.23 1016.49 1016.67 1016.79 1016.96 1017.17 1017.46 1017.59 1017.55 1017.60 1017.62 1017.59 1017.51 1017.57 1017.67 1017.84 1017.65 1017.77 1017.93 1018.08 1018.10 1018.44
1007.27 1007.00 1006.71 1006.26 1005.82 1005.43 1005.40 1006.02 1006.81 1007.31 1007.44 1007.70 1008.90 1010.00 1010.86 1011.63 1012.08 1012.41 1012.80 1013.17 1013.56 1013.98 1014.43 1014.81 1015.12 1015.46 1015.77 1015.96 1016.24 1016.33 1016.54 1016.75 1016.94 1017.10 1017.47 1017.62 1017.62 1017.52 1017.58 1017.47 1017.50 1017.72 1017.56 1017.61 1017.68 1017.63 1017.74 1017.85 1017.88
1007.18 1006.56 1006.44 1005.92 1005.60 1005.11 1005.37 1006.10 1006.80 1007.75 1008.17 1008.59 1009.51 1010.42 1010.94 1011.36 1011.87 1012.23 1012.51 1013.06 1013.48 1013.80 1014.18 1014.59 1015.12 1015.50 1015.68 1016.08 1016.12 1016.32 1016.38 1016.53 1016.67 1016.95 1017.11 1017.27 1017.28 1017.34 1017.36 1017.27 1017.40 1017.46 1017.42 1017.36 1017.37 1017.30 1017.32 1017.34 1017.63
1007.21 1006.62 1006.04 1005.61 1005.44 1005.36 1005.50 1006.25 1006.84 1008.22 1008.63 1009.17 1009.88 1010.40 1010.86 1011.20 1011.55 1012.09 1012.56 1012.79 1013.18 1013.48 1013.68 1014.20 1014.71 1015.12 1015.48 1015.76 1015.83 1015.93 1016.03 1016.14 1016.39 1016.55 1016.69 1017.06 1017.06 1017.14 1017.19 1017.24 1017.18 1017.12 1017.24 1017.20 1017.15 1017.16 1017.12 1016.92 1016.94
1007.06 1006.38 1005.70 1005.38 1005.29 1005.39 1005.52 1006.17 1006.94 1008.09 1008.75 1009.24 1009.86 1010.49 1010.89 1011.10 1011.51 1011.68 1011.88 1012.20 1012.46 1012.78 1013.37 1013.80 1014.31 1014.47 1014.95 1015.22 1015.36 1015.57 1015.63 1015.72 1015.93 1016.06 1016.34 1016.56 1016.69 1016.81 1017.01 1016.94 1016.96 1016.92 1016.99 1017.15 1017.10 1016.98 1016.93 1016.90 1016.69
1006.81 1006.61 1005.91 1005.64 1005.31 1005.65 1005.47 1006.08 1007.22 1008.06 1008.60 1009.11 1009.70 1010.16 1010.62 1010.90 1010.96 1011.17 1011.44 1011.66 1012.06 1012.42 1012.72 1013.37 1013.64 1013.86 1014.28 1014.55 1014.77 1014.99 1015.12 1015.26 1015.35 1015.51 1015.74 1016.04 1016.19 1016.40 1016.57 1016.49 1016.48 1016.56 1016.70 1016.69 1016.63 1016.58 1016.49 1016.54 1016.64
1006.83 1006.44 1006.10 1005.72 1005.45 1005.48 1005.61 1006.02 1006.85 1007.87 1008.30 1008.84 1009.40 1009.80 1010.06 1010.36 1010.71 1010.78 1011.00 1011.22 1011.50 1011.86 1012.29 1012.75 1013.18 1013.25 1013.52 1013.88 1014.10 1014.40 1014.58 1014.80 1014.80 1014.96 1015.09 1015.41 1015.75 1015.92 1016.22 1016.00 1015.92 1016.28 1016.22 1016.30 1016.30 1016.22 1016.51 1016.23 1016.29
1006.49 1006.33 1006.21 1005.76 1005.67 1005.49 1005.58 1005.70 1006.49 1007.44 1007.95 1008.16 1008.74 1009.25 1009.51 1009.66 1009.60 1009.90 1010.32 1010.52 1010.72 1011.17 1011.74 1012.12 1012.47 1012.78 1013.13 1013.58 1014.04 1014.20 1014.39 1014.43 1014.39 1014.39 1014.45 1014.66 1014.86 1015.13 1015.49 1015.34 1015.42 1015.82 1015.95 1015.99 1016.06 1016.21 1016.04 1016.10 1015.94
1006.28 1006.22 1005.94 1005.66 1005.42 1005.34 1005.21 1005.46 1005.96 1006.83 1007.42 1007.69 1008.09 1008.54 1008.66 1008.79 1008.74 1009.09 1009.34 1009.78 1010.24 1010.54 1011.00 1011.48 1011.91 1012.09 1012.80 1013.23 1013.55 1013.76 1013.76 1013.90 1014.00 1013.98 1014.22 1014.42 1014.58 1014.82 1015.06 1014.88 1015.00 1015.31 1015.46 1015.35 1015.48 1015.76 1015.84 1015.57 1015.76
1006.06 1005.87 1005.56 1005.42 1005.11 1005.20 1005.09 1005.10 1005.41 1006.06 1006.20 1006.60 1007.20 1007.62 1007.72 1007.83 1008.11 1008.25 1008.66 1009.04 1009.31 1009.43 1010.09 1010.68 1010.94 1011.50 1012.12 1012.52 1012.83 1013.01 1013.14 1013.34 1013.47 1013.46 1013.66 1013.79 1013.83 1013.85 1013.90 1014.16 1014.23 1014.36 1014.47 1014.74 1014.96 1015.26 1014.97 1015.03 1015.27
1005.58 1005.42 1005.16 1005.01 1005.22 1005.19 1005.06 1004.72 1004.96 1005.14 1005.61 1006.00 1006.36 1006.69 1006.84 1006.80 1006.86 1007.09 1007.61 1007.80 1008.14 1008.64 1009.25 1009.78 1010.14 1010.63 1011.28 1011.70 1012.41 1012.73 1012.96 1013.06 1012.82 1012.54 1012.52 1012.52 1012.75 1012.90 1012.98 1013.16 1013.51 1013.56 1013.77 1013.60 1014.00 1014.38 1014.64 1014.22 1014.00
1004.76 1004.52 1004.63 1004.88 1004.99 1004.72 1005.13 1004.42 1004.56 1004.51 1004.82 1005.09 1005.29 1005.51 1005.58 1005.70 1006.05 1006.11 1006.29 1006.67 1007.28 1007.62 1008.44 1008.98 1009.45 1009.99 1010.55 1011.23 1011.44 1011.52 1011.50 1011.55 1011.25 1011.31 1011.41 1011.48 1011.75 1011.88 1012.03 1012.24 1012.46 1012.84 1013.02 1013.20 1013.42 1013.76 1013.80 1013.86 1013.48
1004.24 1004.00 1004.29 1004.61 1004.83 1004.96 1005.06 1004.51 1004.10 1004.41 1004.14 1003.97 1003.93 1004.02 1004.28 1004.52 1004.87 1004.90 1004.92 1005.58 1006.13 1006.84 1007.38 1008.05 1008.81 1009.27 1009.64 1010.14 1010.64 1010.96 1011.08 1010.64 1010.53 1010.69 1010.96 1011.20 1011.19 1011.25 1011.36 1011.59 1011.91 1012.16 1012.56 1012.64 1013.17 1012.94 1013.00 1013.24 1013.22
1004.16 1004.17 1004.26 1004.59 1004.48 1004.50 1005.02 1004.52 1003.54 1003.76 1003.72 1003.33 1003.25 1003.41 1003.43 1003.76 1004.21 1004.18 1004.45 1005.13 1005.41 1006.18 1006.85 1007.52 1008.14 1008.44 1009.44 1009.86 1010.04 1010.11 1010.08 1010.12 1010.10 1010.10 1010.15 1010.08 1010.36 1010.68 1010.81 1010.80 1010.93 1011.01 1011.25 1011.38 1011.06 1012.35 1012.92 1012.77 1012.83
1003.72 1003.60 1003.69 1003.93 1004.00 1004.30 1005.14 1004.76 1003.48 1003.71 1003.88 1003.69 1003.43 1003.40 1003.63 1003.80 1004.02 1004.23 1004.69 1005.33 1005.83 1006.14 1006.84 1007.35 1007.87 1008.24 1008.48 1008.83 1008.98 1009.04 1009.10 1009.39 1009.42 1009.32 1009.29 1009.32 1009.37 1009.42 1009.40 1009.76 1010.16 1010.09 1010.00 1010.12 1010.88 1009.88 1011.87 1012.69 1012.22
1002.90 1002.85 1002.89 1003.25 1003.78 1004.40 1005.30 1004.25 1003.66 1004.10 1004.26 1003.90 1004.08 1004.34 1004.43 1004.21 1004.20 1004.55 1004.86 1005.16 1005.40 1005.75 1006.38 1007.24 1007.40 1007.88 1008.34 1008.47 1008.43 1008.63 1008.85 1008.82 1008.62 1008.70 1008.52 1008.62 1008.51 1008.68 1009.18 1009.02 1009.12 1008.99 1008.84 1009.23 1008.81 1008.64 1009.86 1011.88 1011.75
1002.84 1002.99 1003.43 1003.43 1004.84 1004.47 1004.40 1004.11 1003.90 1004.12 1004.42 1004.63 1004.64 1004.69 1005.09 1005.14 1005.28 1005.41 1005.56 1005.85 1006.03 1006.29 1006.82 1007.22 1007.80 1008.15 1008.34 1008.36 1008.27 1008.23 1008.29 1008.27 1008.02 1008.07 1008.22 1008.14 1008.29 1008.59 1008.60 1008.59 1008.59 1008.47 1008.28 1007.91 1007.46 1008.27 1009.52 1010.34 1010.75
1002.41 1003.08 1003.34 1003.51 1003.96 1003.92 1004.18 1004.19 1003.68 1004.22 1004.88 1005.46 1005.57 1005.74 1006.11 1006.25 1006.53 1006.66 1006.70 1006.88 1007.11 1007.45 1007.76 1007.94 1008.14 1008.34 1008.51 1008.44 1008.36 1008.26 1008.20 1008.14 1008.07 1008.14 1008.02 1008.12 1008.20 1008.34 1008.32 1008.24 1008.12 1007.99 1007.80 1007.74 1007.28 1007.75 1008.44 1007.73 1009.46
1002.61 1002.75 1003.43 1003.68 1003.88 1003.39 1003.77 1003.76 1004.55 1005.06 1005.85 1006.26 1006.61 1006.72 1006.93 1007.19 1007.56 1007.70 1007.84 1008.11 1008.26 1008.32 1008.42 1008.67 1008.77 1008.88 1008.75 1008.59 1008.54 1008.53 1008.41 1008.28 1008.27 1008.24 1008.10 1007.96 1007.87 1007.89 1007.79 1007.62 1007.42 1007.08 1006.89 1006.66 1006.49 1006.72 1006.65 1006.91 1007.64
1001.88 1002.09 1002.26 1002.45 1003.66 1004.10 1004.13 1004.24 1005.10 1005.74 1006.38 1006.87 1007.27 1007.48 1007.52 1007.69 1007.82 1007.99 1008.13 1008.34 1008.64 1008.80 1008.96 1009.08 1009.16 1009.24 1009.20 1008.92 1008.73 1008.64 1008.60 1008.50 1008.28 1008.09 1007.87 1007.74 1007.42 1007.16 1006.96 1006.73 1006.60 1006.35 1006.14 1006.03 1005.68 1005.57 1005.75 1005.78 1006.31
Thickness
5820 5819 5819 5810 5785 5783 5775 5780 5795 5789 5788 5805 5805 5798 5793 5792 5787 5771 5795 5797 5799 5793 5785 5785 5784 5781 5775 5773 5771 5769 5765 5764 5763 5763 5761 5760 5759 5755 5752 5750 5748 5746 5745 5744 5742 5740 5740 5739 5738
5826 5824 5818 5804 5784 5776 5775 5795 5791 5797 5802 5811 5806 5801 5795 5785 5794 5790 5791 5799 5799 5796 5786 5786 5785 5780 5775 5772 5772 5768 5766 5764 5764 5762 5761 5761 5761 5758 5755 5752 5748 5747 5745 5744 5743 5743 5742 5742 5741
5827 5826 5810 5798 5788 5781 5783 5801 5802 5805 5811 5809 5802 5808 5800 5791 5796 5797 5801 5802 5798 5795 5789 5787 5785 5779 5774 5772 5771 5767 5765 5765 5765 5764 5762 5761 5760 5759 5757 5754 5750 5748 5747 5745 5745 5744 5744 5744 5743
5824 5819 5811 5798 5794 5801 5806 5811 5812 5805 5812 5816 5811 5797 5803 5807 5801 5806 5804 5802 5799 5794 5789 5786 5784 5779 5776 5773 5770 5768 5765 5765 5764 5763 5763 5763 5761 5760 5758 5756 5754 5750 5749 5748 5747 5745 5745 5745 5744
5828 5817 5802 5798 5801 5809 5815 5820 5818 5807 5809 5811 5813 5794 5791 5801 5808 5806 5804 5803 5798 5792 5789 5786 5781 5779 5777 5774 5771 5768 5766 5766 5765 5764 5763 5762 5761 5760 5759 5758 5755 5753 5751 5749 5747 5746 5746 5746 5745
5817 5816 5799 5795 5803 5813 5818 5823 5818 5814 5812 5809 5804 5800 5793 5802 5802 5804 5804 5800 5796 5793 5788 5785 5780 5778 5777 5774 5771 5769 5768 5767 5765 5763 5763 5762 5761 5760 5758 5758 5757 5756 5754 5752 5750 5748 5747 5746 5747
5815 5810 5802 5805 5809 5811 5816 5828 5818 5813 5810 5808 5816 5799 5793 5798 5804 5805 5802 5799 5796 5792 5789 5785 5781 5778 5776 5774 5771 5769 5768 5768 5767 5766 5764 5763 5762 5760 5758 5756 5756 5756 5755 5753 5751 5750 5748 5747 5748
5824 5820 5811 5815 5807 5809 5828 5829 5830 5822 5812 5827 5825 5803 5795 5802 5806 5804 5800 5796 5792 5790 5788 5787 5783 5780 5777 5775 5772 5770 5769 5768 5768 5766 5765 5764 5762 5761 5760 5758 5757 5756 5756 5754 5753 5751 5749 5749 5749
5836 5817 5806 5811 5813 5818 5834 5826 5833 5835 5822 5823 5823 5820 5822 5812 5807 5801 5796 5792 5788 5787 5788 5787 5785 5782 5779 5777 5775 5772 5770 5769 5768 5767 5767 5766 5766 5765 5763 5762 5760 5758 5757 5756 5754 5753 5751 5750 5751
5827 5816 5814 5830 5831 5829 5836 5832 5828 5822 5817 5814 5812 5817 5817 5812 5805 5799 5796 5794 5791 5790 5789 5788 5786 5783 5780 5778 5776 5775 5774 5773 5772 5771 5770 5769 5769 5766 5764 5764 5762 5760 5759 5757 5756 5756 5753 5751 5750
5826 5817 5827 5832 5839 5841 5840 5834 5833 5822 5813 5825 5815 5811 5812 5810 5806 5804 5804 5803 5800 5797 5795 5792 5789 5785 5782 5780 5778 5777 5776 5774 5772 5770 5769 5769 5769 5768 5767 5768 5767 5765 5763 5763 5761 5759 5758 5757 5754
5825 5833 5835 5837 5845 5845 5839 5841 5825 5826 5827 5839 5830 5823 5817 5810 5808 5807 5805 5803 5802 5800 5798 5796 5792 5789 5786 5784 5782 5781 5779 5777 5775 5774 5770 5769 5768 5768 5767 5768 5767 5766 5766 5764 5763 5763 5761 5759 5759
5826 5836 5841 5847 5849 5852 5853 5836 5828 5821 5830 5834 5827 5820 5816 5815 5812 5812 5811 5808 5806 5801 5800 5798 5794 5791 5788 5785 5783 5781 5780 5779 5778 5776 5774 5772 5771 5769 5768 5769 5767 5766 5766 5766 5766 5765 5765 5764 5761
5832 5836 5841 5849 5848 5849 5841 5836 5836 5822 5830 5824 5821 5818 5818 5816 5815 5812 5809 5808 5807 5806 5805 5803 5799 5794 5791 5789 5787 5785 5784 5783 5780 5779 5777 5773 5773 5771 5769 5768 5768 5768 5767 5767 5766 5767 5766 5767 5766
5835 5832 5843 5847 5848 5842 5850 5828 5824 5829 5830 5823 5820 5818 5817 5818 5818 5815 5816 5814 5814 5813 5809 5806 5802 5801 5797 5795 5792 5789 5788 5787 5785 5784 5781 5779 5777 5774 5772 5771 5769 5769 5768 5767 5766 5766 5767 5767 5767
5827 5828 5817 5838 5848 5843 5847 5813 5826 5833 5828 5822 5821 5820 5818 5818 5820 5822 5822 5821 5820 5817 5814 5811 5810 5808 5804 5801 5798 5796 5794 5793 5792 5789 5786 5783 5781 5778 5775 5775 5774 5772 5770 5769 5768 5769 5769 5769 5767
5820 5808 5813 5824 5846 5841 5839 5821 5833 5833 5830 5824 5822 5821 5822 5821 5821 5824 5826 5826 5825 5822 5820 5817 5815 5814 5812 5809 5806 5804 5802 5799 5797 5794 5792 5788 5784 5782 5778 5778 5778 5774 5773 5771 5770 5770 5765 5767 5767
5807 5812 5815 5817 5835 5840 5831 5832 5836 5835 5832 5831 5829 5825 5824 5825 5829 5833 5832 5833 5834 5830 5827 5824 5821 5819 5816 5812 5807 5804 5802 5801 5800 5799 5796 5793 5790 5787 5783 5783 5782 5776 5773 5771 5769 5766 5769 5766 5766
5826 5820 5818 5830 5844 5837 5834 5835 5839 5838 5836 5834 5833 5831 5832 5832 5840 5842 5841 5840 5836 5835 5832 5828 5824 5824 5818 5812 5806 5803 5801 5801 5800 5799 5797 5794 5791 5788 5784 5785 5782 5778 5776 5775 5773 5769 5765 5766 5767
5826 5821 5823 5835 5845 5841 5836 5835 5846 5843 5845 5846 5841 5839 5840 5842 5842 5844 5844 5843 5842 5843 5838 5834 5832 5828 5823 5818 5814 5811 5808 5805 5803 5801 5798 5796 5794 5792 5791 5788 5787 5785 5782 5779 5775 5771 5770 5767 5765
5828 5823 5825 5831 5838 5843 5836 5833 5839 5852 5853 5852 5852 5852 5851 5849 5849 5852 5849 5850 5851 5847 5844 5840 5838 5836 5830 5825 5818 5813 5809 5806 5805 5806 5805 5805 5800 5797 5795 5792 5788 5788 5785 5783 5778 5773 5767 5766 5771
5822 5847 5842 5835 5829 5821 5835 5812 5832 5850 5850 5852 5856 5857 5859 5860 5861 5862 5861 5859 5855 5855 5852 5847 5844 5839 5835 5827 5822 5817 5814 5808 5814 5812 5812 5810 5805 5802 5799 5796 5793 5790 5788 5783 5779 5775 5771 5766 5763
5838 5853 5844 5839 5829 5826 5824 5824 5842 5842 5845 5857 5868 5870 5871 5873 5873 5873 5874 5871 5868 5864 5860 5855 5848 5843 5840 5835 5828 5820 5815 5819 5818 5815 5810 5806 5805 5801 5798 5794 5791 5788 5784 5780 5773 5774 5770 5765 5761
5853 5843 5840 5836 5836 5813 5816 5826 5838 5843 5852 5866 5876 5878 5881 5880 5878 5881 5883 5878 5873 5869 5864 5858 5849 5845 5839 5834 5830 5825 5821 5818 5816 5814 5809 5808 5805 5801 5799 5797 5794 5790 5785 5780 5781 5768 5762 5756 5755
5846 5839 5815 5811 5813 5811 5819 5818 5843 5857 5862 5864 5871 5878 5879 5880 5879 5878 5874 5870 5867 5864 5859 5855 5849 5843 5843 5839 5836 5834 5829 5823 5818 5815 5813 5808 5804 5802 5802 5798 5790 5786 5784 5782 5771 5770 5751 5744 5747
5845 5849 5827 5795 5806 5815 5815 5818 5844 5859 5864 5871 5872 5869 5871 5873 5878 5875 5873 5872 5871 5867 5862 5853 5851 5844 5839 5836 5833 5831 5825 5820 5819 5816 5813 5808 5805 5800 5794 5790 5785 5777 5756 5778 5780 5776 5757 5734 5738
5840 5836 5846 5822 5804 5811 5822 5838 5855 5862 5860 5860 5863 5866 5862 5864 5866 5866 5866 5865 5862 5859 5854 5850 5842 5837 5832 5828 5825 5822 5819 5816 5813 5809 5805 5803 5798 5791 5787 5783 5778 5778 5775 5764 5778 5769 5751 5735 5732
5854 5850 5831 5826 5793 5794 5812 5814 5837 5846 5847 5847 5850 5852 5852 5854 5852 5853 5853 5851 5850 5846 5843 5841 5836 5829 5825 5821 5818 5814 5810 5806 5802 5798 5795 5790 5786 5781 5777 5775 5773 5771 5770 5768 5766 5759 5752 5753 5735
5839 5839 5827 5831 5818 5814 5806 5824 5842 5839 5838 5838 5839 5842 5843 5841 5840 5840 5839 5837 5834 5835 5832 5828 5824 5817 5813 5809 5804 5800 5796 5792 5788 5782 5779 5777 5775 5770 5767 5765 5763 5764 5763 5762 5760 5756 5753 5746 5735
5856 5848 5852 5833 5808 5807 5814 5826 5842 5838 5837 5837 5834 5835 5838 5838 5836 5834 5833 5831 5826 5822 5818 5813 5809 5802 5798 5796 5793 5787 5783 5778 5774 5770 5767 5764 5763 5763 5761 5758 5755 5753 5753 5752 5751 5749 5745 5741 5735